GW0077 Weather Reports


time (UTC)temp
F
wind
direction
speed
knots
gust
knots
rain 1hr
in
rain 24hr
in
rain mn
in
humidity
%
barometer
mb
20260903011244 84 178 1.7 2.6 0.00 0.00 0.00 80 1018.0
20260903010716 84 164 1.7 2.6 0.00 0.00 0.00 79 1018.0
20260903010231 84 193 0.9 1.7 0.00 0.00 0.00 78 1018.0
20260903005718 84 193 1.7 1.7 0.00 0.00 0.00 78 1017.9
20260903005231 84 191 1.7 1.7 0.00 0.00 0.00 78 1017.9
20260903004725 85 191 0.9 1.7 0.00 0.00 0.00 77 1017.8
20260903004218 85 191 1.7 1.7 0.00 0.00 0.00 77 1017.8
20260903003733 85 199 0.9 1.7 0.00 0.00 0.00 76 1017.8
20260903003231 85 199 0.9 1.7 0.00 0.00 0.00 75 1017.8
20260903002724 85 198 0.9 1.7 0.00 0.00 0.00 75 1017.9
20260903002217 86 198 0.9 1.7 0.00 0.00 0.00 76 1017.9
20260903001731 86 199 0.9 1.7 0.00 0.00 0.00 75 1017.9
20260903001224 87 199 0.0 0.9 0.00 0.00 0.00 74 1017.9
20260903000718 87 199 0.0 0.9 0.00 0.00 0.00 73 1017.9
20260903000233 87 212 0.0 0.9 0.00 0.00 0.00 73 1017.9
20260902235719 88 212 0.9 0.9 0.00 0.00 0.00 72 1017.9
20260902235217 88 214 0.9 0.9 0.00 0.00 0.00 72 1017.9
20260902234731 89 214 0.9 0.9 0.00 0.00 0.00 71 1017.9
20260902234224 89 205 0.9 0.9 0.00 0.00 0.00 70 1017.9
20260902233718 89 224 0.0 1.7 0.00 0.00 0.00 70 1018.0
20260902233251 90 234 0.9 1.7 0.00 0.00 0.00 70 1018.0
20260902232723 90 220 0.9 1.7 0.00 0.00 0.00 69 1018.0
20260902232216 91 209 0.0 0.9 0.00 0.00 0.00 68 1018.0
20260902231731 92 227 0.0 0.9 0.00 0.00 0.00 67 1018.0
20260902231228 92 227 0.9 0.9 0.00 0.00 0.00 65 1018.0
20260902230722 93 234 0.9 1.7 0.00 0.00 0.00 65 1018.1
20260902230215 93 219 0.9 1.7 0.00 0.00 0.00 63 1018.1
20260902225722 93 235 0.9 1.7 0.00 0.00 0.00 63 1018.1
20260902225216 93 233 0.9 3.5 0.00 0.00 0.00 62 1018.1
20260902224749 93 236 1.7 3.5 0.00 0.00 0.00 62 1018.1
20260902223717 94 207 0.9 2.6 0.00 0.00 0.00 63 1018.1
20260902223215 94 237 1.7 2.6 0.00 0.00 0.00 61 1018.1
20260902222729 94 226 0.0 2.6 0.00 0.00 0.00 63 1018.1
20260902222243 94 229 0.0 2.6 0.00 0.00 0.00 62 1018.1
20260902221736 94 233 0.9 3.5 0.00 0.00 0.00 61 1018.1
20260902221229 94 221 1.7 4.3 0.00 0.00 0.00 61 1018.1
20260902220723 94 214 2.6 5.2 0.00 0.00 0.00 60 1018.2
20260902220237 94 250 1.7 5.2 0.00 0.00 0.00 60 1018.2
20260902215743 94 271 1.7 3.5 0.00 0.00 0.00 61 1018.2
20260902215216 94 225 1.7 6.1 0.00 0.00 0.00 62 1018.3
20260902214730 94 233 1.7 6.1 0.00 0.00 0.00 61 1018.2
20260902214242 94 198 1.7 5.2 0.00 0.00 0.00 60 1018.2
20260902213717 94 197 3.5 5.2 0.00 0.00 0.00 59 1018.3
20260902213231 95 228 0.9 3.5 0.00 0.00 0.00 59 1018.3
20260902212723 94 232 1.7 7.0 0.00 0.00 0.00 59 1018.3
20260902212216 94 235 2.6 7.0 0.00 0.00 0.00 59 1018.3
20260902211728 95 280 2.6 3.5 0.00 0.00 0.00 58 1018.3
20260902211220 94 243 0.9 5.2 0.00 0.00 0.00 59 1018.4
20260902210753 94 243 2.6 5.2 0.00 0.00 0.00 59 1018.4
20260902210245 94 201 1.7 5.2 0.00 0.00 0.00 59 1018.4
20260902205750 94 276 2.6 6.1 0.00 0.00 0.00 59 1018.5
20260902205222 95 248 1.7 6.1 0.00 0.00 0.00 57 1018.5
20260902204735 95 276 1.7 6.1 0.00 0.00 0.00 55 1018.5
20260902204247 95 245 2.6 6.1 0.00 0.00 0.00 57 1018.5
20260902203744 94 278 0.9 6.1 0.00 0.00 0.00 59 1018.6
20260902203216 94 205 2.6 6.1 0.00 0.00 0.00 60 1018.5
20260902202730 94 222 1.7 5.2 0.00 0.00 0.00 59 1018.6
20260902202223 94 262 2.6 5.2 0.00 0.00 0.00 58 1018.6
20260902201716 94 223 1.7 5.2 0.00 0.00 0.00 58 1018.6
20260902201230 93 232 2.6 4.3 0.00 0.00 0.00 61 1018.7
20260902200723 93 240 0.9 5.2 0.00 0.00 0.00 60 1018.7
20260902200217 94 226 3.5 5.2 0.00 0.00 0.00 59 1018.8
20260902195728 95 265 0.0 6.1 0.00 0.00 0.00 60 1018.8
20260902195242 95 266 3.5 6.1 0.00 0.00 0.00 59 1018.9
20260902194714 95 221 3.5 7.0 0.00 0.00 0.00 56 1019.0
20260902194247 95 240 2.6 7.0 0.00 0.00 0.00 59 1019.0
20260902193718 94 268 0.9 3.5 0.00 0.00 0.00 60 1019.1
20260902193231 94 238 0.9 4.3 0.00 0.00 0.00 62 1019.0
20260902192723 95 234 2.6 6.1 0.00 0.00 0.00 59 1019.1
20260902192216 95 240 2.6 6.1 0.00 0.00 0.00 58 1019.1
20260902191729 95 196 0.0 5.2 0.00 0.00 0.00 57 1019.1
20260902191226 95 217 1.7 7.0 0.00 0.00 0.00 58 1019.3
20260902190719 94 258 3.5 7.0 0.00 0.00 0.00 61 1019.3
20260902190232 94 210 1.7 5.2 0.00 0.00 0.00 61 1019.3
20260902185739 93 232 2.6 5.2 0.00 0.00 0.00 61 1019.4
20260902185232 93 286 2.6 5.2 0.00 0.00 0.00 61 1019.4
20260902184724 93 229 1.7 6.1 0.00 0.00 0.00 65 1019.5
20260902184217 93 278 1.7 3.5 0.00 0.00 0.00 63 1019.5
20260902183731 93 274 0.9 6.1 0.00 0.00 0.00 63 1019.5
20260902183224 94 309 3.5 6.1 0.00 0.00 0.00 63 1019.5
20260902182721 94 281 1.7 4.3 0.00 0.00 0.00 63 1019.5
20260902182214 93 236 2.6 6.1 0.00 0.00 0.00 61 1019.6
20260902181727 94 230 2.6 7.0 0.00 0.00 0.00 62 1019.6
20260902181220 94 246 2.6 8.7 0.00 0.00 0.00 62 1019.6
20260902180712 94 203 4.3 8.7 0.00 0.00 0.00 63 1019.6
20260902180226 94 260 1.7 8.7 0.00 0.00 0.00 62 1019.7
20260902175753 94 285 3.5 8.7 0.00 0.00 0.00 64 1019.6
20260902175224 94 203 0.9 5.2 0.00 0.00 0.00 64 1019.7
20260902174722 93 269 2.6 6.1 0.00 0.00 0.00 63 1019.7
20260902174214 93 236 2.6 6.1 0.00 0.00 0.00 62 1019.8
20260902173729 94 279 2.6 8.7 0.00 0.00 0.00 61 1020.0
20260902173242 93 219 2.6 8.7 0.00 0.00 0.00 61 1020.0
20260902172714 93 237 2.6 7.8 0.00 0.00 0.00 64 1020.1
20260902172227 93 198 2.6 5.2 0.00 0.00 0.00 62 1020.1
20260902171719 93 249 1.7 5.2 0.00 0.00 0.00 61 1020.1
20260902171232 93 241 3.5 7.0 0.00 0.00 0.00 62 1020.1
20260902170725 93 233 4.3 7.0 0.00 0.00 0.00 62 1020.2
20260902170222 93 233 1.7 4.3 0.00 0.00 0.00 66 1020.3
20260902165729 93 279 1.7 4.3 0.00 0.00 0.00 64 1020.3
20260902165221 93 221 0.9 4.3 0.00 0.00 0.00 64 1020.3
20260902164714 93 245 1.7 5.2 0.00 0.00 0.00 63 1020.4
20260902164228 93 234 2.6 5.2 0.00 0.00 0.00 65 1020.4
20260902163741 93 184 0.9 4.3 0.00 0.00 0.00 67 1020.5
20260902163213 93 208 0.9 4.3 0.00 0.00 0.00 67 1020.5
20260902162748 92 181 2.6 4.3 0.00 0.00 0.00 66 1020.6
20260902162220 92 243 0.0 3.5 0.00 0.00 0.00 65 1020.6
20260902161716 92 259 0.9 3.5 0.00 0.00 0.00 66 1020.7
20260902161229 91 217 0.0 4.3 0.00 0.00 0.00 70 1020.7
20260902160742 91 235 1.7 4.3 0.00 0.00 0.00 68 1020.8
20260902160234 91 329 1.7 4.3 0.00 0.00 0.00 69 1020.8
20260902155721 91 285 2.6 4.3 0.00 0.00 0.00 69 1020.9
20260902155213 90 243 1.7 4.3 0.00 0.00 0.00 70 1020.9
20260902154727 90 201 1.7 3.5 0.00 0.00 0.00 71 1020.9
20260902154240 90 255 0.9 3.5 0.00 0.00 0.00 72 1020.9
20260902153752 89 341 0.0 5.2 0.00 0.00 0.00 72 1020.9
20260902153244 89 312 1.7 5.2 0.00 0.00 0.00 74 1020.9
20260902152716 89 321 1.7 3.5 0.00 0.00 0.00 73 1020.9
20260902152213 89 278 0.9 4.3 0.00 0.00 0.00 75 1020.8
20260902151726 88 205 2.6 4.3 0.00 0.00 0.00 74 1020.7
20260902151219 88 227 1.7 4.3 0.00 0.00 0.00 76 1020.7
20260902150732 88 328 0.9 3.5 0.00 0.00 0.00 76 1020.7
20260902150224 87 276 0.9 3.5 0.00 0.00 0.00 77 1020.8
20260902145732 87 274 0.9 2.6 0.00 0.00 0.00 77 1020.9
20260902145224 87 275 0.9 3.5 0.00 0.00 0.00 77 1021.0
20260902144717 87 278 1.7 3.5 0.00 0.00 0.00 75 1021.0
20260902144234 87 273 0.0 3.5 0.00 0.00 0.00 79 1020.9
20260902143743 86 328 0.9 3.5 0.00 0.00 0.00 78 1020.9
20260902143215 86 271 0.9 2.6 0.00 0.00 0.00 78 1020.8
20260902142751 86 283 0.9 3.5 0.00 0.00 0.00 79 1020.8
20260902142223 85 302 0.9 3.5 0.00 0.00 0.00 78 1020.7
20260902141737 85 272 0.0 2.6 0.00 0.00 0.00 82 1020.7
20260902141230 84 231 0.9 3.5 0.00 0.00 0.00 81 1020.8
20260902140724 84 225 0.9 3.5 0.00 0.00 0.00 82 1020.7
20260902140218 83 221 0.9 2.6 0.00 0.00 0.00 82 1020.8
20260902135724 82 225 0.9 2.6 0.00 0.00 0.00 82 1020.8
20260902135242 82 226 0.9 2.6 0.00 0.00 0.00 84 1020.8
20260902134714 82 226 0.9 2.6 0.00 0.00 0.00 85 1020.8
20260902134247 81 230 0.9 1.7 0.00 0.00 0.00 84 1020.9
20260902133719 81 225 0.9 2.6 0.00 0.00 0.00 85 1020.8
20260902133231 80 226 1.7 2.6 0.00 0.00 0.00 85 1020.9
20260902132724 80 236 1.7 3.5 0.00 0.00 0.00 86 1020.9
20260902132217 79 238 1.7 3.5 0.00 0.00 0.00 86 1020.8
20260902131730 79 235 1.7 3.5 0.00 0.00 0.00 86 1020.8
20260902131224 79 230 1.7 3.5 0.00 0.00 0.00 86 1020.8
20260902130721 79 236 1.7 2.6 0.00 0.00 0.00 86 1020.8
20260902130214 79 236 1.7 2.6 0.00 0.00 0.00 87 1020.8
20260902125720 78 230 0.9 1.7 0.00 0.00 0.00 88 1020.8
20260902125253 78 231 0.9 1.7 0.00 0.00 0.00 88 1020.7
20260902124725 78 226 0.0 1.7 0.00 0.00 0.00 89 1020.7
20260902124218 77 175 0.9 1.7 0.00 0.00 0.00 89 1020.7
20260902123752 77 202 0.0 1.7 0.00 0.00 0.00 90 1020.6
20260902123224 76 194 0.0 2.6 0.00 0.00 0.00 90 1020.5
20260902122717 76 185 0.9 2.6 0.00 0.00 0.00 91 1020.4
20260902122214 75 195 0.0 2.6 0.00 0.00 0.00 92 1020.4
20260902121727 74 198 0.9 1.7 0.00 0.00 0.00 93 1020.4
20260902121220 74 179 0.9 1.7 0.00 0.00 0.00 94 1020.4
20260902120753 73 183 0.9 2.6 0.00 0.00 0.00 95 1020.4
20260902120225 73 185 1.7 1.7 0.00 0.00 0.00 95 1020.4
20260902115731 72 188 0.9 1.7 0.00 0.00 0.00 95 1020.4
20260902115224 72 197 0.9 1.7 0.00 0.00 0.00 95 1020.4
20260902114716 72 197 0.0 0.9 0.00 0.00 0.00 96 1020.3
20260902114213 72 197 0.0 1.7 0.00 0.00 0.00 96 1020.2
20260902113746 72 197 0.9 1.7 0.00 0.00 0.00 96 1020.1
20260902113219 72 213 0.0 0.9 0.00 0.00 0.00 95 1020.0
20260902112712 72 213 0.0 0.9 0.00 0.00 0.00 95 1019.9
20260902112226 72 213 0.0 0.9 0.00 0.00 0.00 95 1019.8
20260902111720 72 234 0.0 0.9 0.00 0.00 0.00 95 1019.9
20260902111213 72 234 0.0 1.7 0.00 0.00 0.00 95 1019.9
20260902110726 72 173 0.0 1.7 0.00 0.00 0.00 95 1019.7
20260902110218 72 172 1.7 1.7 0.00 0.00 0.00 95 1019.7
20260902105743 72 164 0.0 1.7 0.00 0.00 0.00 95 1019.8
20260902105220 72 162 0.9 1.7 0.00 0.00 0.00 96 1019.8
20260902104753 72 158 0.9 0.9 0.00 0.00 0.00 96 1019.7
20260902104224 72 163 0.9 0.9 0.00 0.00 0.00 95 1019.7
20260902103737 72 163 0.0 0.0 0.00 0.00 0.00 95 1019.7
20260902103230 72 163 0.0 0.0 0.00 0.00 0.00 95 1019.6
20260902102723 72 163 0.0 0.0 0.00 0.00 0.00 95 1019.6
20260902102216 72 163 0.0 0.0 0.00 0.00 0.00 94 1019.5
20260902101749 72 163 0.0 0.0 0.00 0.00 0.00 94 1019.5
20260902101221 72 163 0.0 0.9 0.00 0.00 0.00 94 1019.5
20260902100717 73 163 0.0 1.7 0.00 0.00 0.00 94 1019.5
20260902100230 73 163 0.9 1.7 0.00 0.00 0.00 94 1019.5
20260902095717 73 162 1.7 2.6 0.00 0.00 0.00 94 1019.5
20260902095250 73 164 1.7 2.6 0.00 0.00 0.00 94 1019.4
20260902094723 73 160 1.7 2.6 0.00 0.00 0.00 94 1019.5
20260902094232 73 177 1.7 2.6 0.00 0.00 0.00 94 1019.4
20260902093725 73 169 0.9 2.6 0.00 0.00 0.00 94 1019.4
20260902093217 73 179 2.6 2.6 0.00 0.00 0.00 94 1019.4
20260902092731 73 182 1.7 2.6 0.00 0.00 0.00 94 1019.4
20260902092228 73 163 1.7 2.6 0.00 0.00 0.00 94 1019.4
20260902091720 73 195 0.9 1.7 0.00 0.00 0.00 94 1019.5
20260902091233 73 197 0.0 1.7 0.00 0.00 0.00 94 1019.5
20260902090726 73 195 0.9 2.6 0.00 0.00 0.00 94 1019.4
20260902090218 73 189 1.7 3.5 0.00 0.00 0.00 95 1019.4
20260902085724 73 184 2.6 3.5 0.00 0.00 0.00 95 1019.4
20260902085216 73 187 1.7 3.5 0.00 0.00 0.00 95 1019.4
20260902084729 73 181 2.6 3.5 0.00 0.00 0.00 95 1019.4
20260902084225 73 181 2.6 3.5 0.00 0.00 0.00 95 1019.2
20260902083718 73 180 2.6 3.5 0.00 0.00 0.00 95 1019.2
20260902083251 73 181 2.6 3.5 0.00 0.00 0.00 95 1019.2
20260902082722 73 191 2.6 2.6 0.00 0.00 0.00 95 1019.1
20260902082215 73 195 1.7 1.7 0.00 0.00 0.00 95 1019.1
20260902081728 73 194 0.9 1.7 0.00 0.00 0.00 94 1019.1
20260902081240 73 193 1.7 1.7 0.00 0.00 0.00 95 1019.1
20260902080731 73 193 0.9 1.7 0.00 0.00 0.00 95 1019.1
20260902080224 73 196 0.9 2.6 0.00 0.00 0.00 95 1019.0
20260902075713 73 189 1.7 2.6 0.00 0.00 0.00 95 1019.0
20260902075226 73 186 1.7 2.6 0.00 0.00 0.00 95 1019.0
20260902074719 73 186 2.6 2.6 0.00 0.00 0.00 95 1019.0
20260902074231 73 193 0.9 1.7 0.00 0.00 0.00 95 1019.0
20260902073724 73 193 1.7 2.6 0.00 0.00 0.00 95 1018.9
20260902073237 73 191 1.7 2.6 0.00 0.00 0.00 95 1019.0
20260902072729 73 200 0.9 1.7 0.00 0.00 0.00 95 1019.0
20260902072221 73 198 0.9 2.6 0.00 0.00 0.00 94 1018.9
20260902071714 73 193 1.7 2.6 0.00 0.00 0.00 94 1018.9
20260902071231 73 197 0.9 1.7 0.00 0.00 0.00 94 1018.9
20260902070723 74 193 0.9 2.6 0.00 0.00 0.00 94 1018.8
20260902070217 74 191 1.7 2.6 0.00 0.00 0.00 94 1018.9
20260902065723 74 191 1.7 2.6 0.00 0.00 0.00 94 1018.9
20260902065216 74 197 0.9 1.7 0.00 0.00 0.00 94 1018.8
20260902064729 74 197 0.9 1.7 0.00 0.00 0.00 94 1018.9
20260902064221 74 197 0.9 1.7 0.00 0.00 0.00 94 1018.9
20260902063714 74 195 0.9 1.7 0.00 0.00 0.00 94 1018.9
20260902063231 74 198 0.9 1.7 0.00 0.00 0.00 94 1018.9
20260902062723 74 199 0.9 2.6 0.00 0.00 0.00 94 1018.9
20260902062216 74 199 0.9 3.5 0.00 0.00 0.00 94 1018.9
20260902061729 74 185 1.7 3.5 0.00 0.00 0.00 94 1019.0
20260902061301 74 194 2.6 2.6 0.00 0.00 0.00 94 1019.0
20260902060731 74 181 1.7 2.6 0.00 0.00 0.00 94 1019.0
20260902060224 74 186 1.7 2.6 0.00 0.00 0.00 94 1019.0
20260902055730 75 193 1.7 2.6 0.00 0.00 0.00 93 1019.1
20260902055222 75 191 1.7 2.6 0.00 0.00 0.00 93 1019.0
20260902054719 75 199 0.9 1.7 0.00 0.00 0.00 93 1019.2
20260902054231 75 202 1.7 2.6 0.00 0.00 0.00 93 1019.1
20260902053722 75 193 1.7 2.6 0.00 0.00 0.00 93 1019.1
20260902053215 75 198 0.9 3.5 0.00 0.00 0.00 94 1019.1
20260902052728 75 192 2.6 3.5 0.00 0.00 0.00 94 1019.1
20260902052240 75 186 2.6 3.5 0.00 0.00 0.00 94 1019.1
20260902051752 75 185 2.6 2.6 0.00 0.00 0.00 93 1019.1
20260902051223 75 173 0.9 3.5 0.00 0.00 0.00 93 1019.1
20260902050736 75 174 2.6 3.5 0.00 0.00 0.00 93 1019.2
20260902050228 76 179 1.7 2.6 0.00 0.00 0.00 93 1019.1
20260902045714 76 192 0.9 2.6 0.00 0.00 0.00 92 1019.1
20260902045231 76 198 0.0 2.6 0.00 0.00 0.00 92 1019.1
20260902044723 76 192 1.7 2.6 0.00 0.00 0.00 92 1019.1
20260902044236 76 191 1.7 2.6 0.00 0.00 0.00 92 1019.0
20260902043728 76 193 0.9 2.6 0.00 0.00 0.00 92 1019.0
20260902043220 77 190 1.7 2.6 0.00 0.00 0.00 91 1019.0
20260902042713 77 192 1.7 1.7 0.00 0.00 0.00 91 1019.0
20260902042226 77 195 1.7 2.6 0.00 0.00 0.00 91 1019.1
20260902041718 77 191 2.6 2.6 0.00 0.00 0.00 91 1019.0
20260902041251 77 188 1.7 2.6 0.00 0.00 0.00 91 1019.0
20260902040743 77 190 2.6 2.6 0.00 0.00 0.00 90 1019.0
20260902040219 77 191 1.7 2.6 0.00 0.00 0.00 90 1019.0
20260902035725 77 188 1.7 2.6 0.00 0.00 0.00 90 1019.1
20260902035237 77 196 0.9 2.6 0.00 0.00 0.00 90 1019.1
20260902034728 77 188 1.7 2.6 0.00 0.00 0.00 91 1019.0
20260902034240 77 188 2.6 3.5 0.00 0.00 0.00 91 1019.1
20260902033732 77 176 2.6 3.5 0.00 0.00 0.00 90 1019.1
20260902033225 78 198 1.7 3.5 0.00 0.00 0.00 90 1019.1
20260902032716 78 175 2.6 3.5 0.00 0.00 0.00 90 1019.1
20260902032230 78 181 2.6 3.5 0.00 0.00 0.00 89 1019.0
20260902031721 78 179 2.6 2.6 0.00 0.00 0.00 89 1019.0
20260902031217 78 175 1.7 2.6 0.00 0.00 0.00 88 1019.0
20260902030730 79 178 1.7 2.6 0.00 0.00 0.00 88 1019.1
20260902030222 79 175 1.7 2.6 0.00 0.00 0.00 88 1019.1
20260902025728 79 176 1.7 2.6 0.00 0.00 0.00 88 1019.1
20260902025241 79 168 0.9 1.7 0.00 0.00 0.00 88 1019.1
20260902024733 79 196 0.9 1.7 0.00 0.00 0.00 88 1019.1
20260902024246 79 196 0.9 0.9 0.00 0.00 0.00 87 1019.1
20260902023718 79 196 0.0 0.9 0.00 0.00 0.00 87 1019.2
20260902023231 79 196 0.0 0.9 0.00 0.00 0.00 86 1019.2
20260902022744 80 196 0.9 1.7 0.00 0.00 0.00 85 1019.1
20260902022235 80 196 0.9 0.9 0.00 0.00 0.00 84 1019.1
20260902021747 80 196 0.9 0.9 0.00 0.00 0.00 84 1019.0
20260902021223 80 196 0.0 0.9 0.00 0.00 0.00 84 1019.0
20260902020715 80 196 0.0 0.0 0.00 0.00 0.00 83 1019.0
20260902020230 81 196 0.0 0.0 0.00 0.00 0.00 82 1019.0
20260902015715 81 196 0.0 0.0 0.00 0.00 0.00 81 1019.0
20260902015227 81 196 0.0 0.9 0.00 0.00 0.00 81 1018.9
20260902014721 82 196 0.0 0.9 0.00 0.00 0.00 81 1019.0
20260902014253 82 196 0.0 0.9 0.00 0.00 0.00 81 1018.9
20260902013724 82 196 0.0 0.9 0.00 0.00 0.00 80 1019.0
20260902013221 82 196 0.9 0.9 0.00 0.00 0.00 80 1018.9
20260902012713 82 196 0.9 1.7 0.00 0.00 0.00 79 1018.9
20260902012225 83 196 0.9 1.7 0.00 0.00 0.00 79 1018.9
20260902011718 83 200 0.9 1.7 0.00 0.00 0.00 78 1018.9